Location: Bauen
(46.9356°N, 8.5784°E)
Time: 19:32:08
(UTC+00:00)

PAYLOAD B - Pass Details

Date: 18 February 2020
Orbit: 848 x 872 km, 99.1° (Epoch: 05 April)

Event Time Altitude Azimuth Distance (km) Brightness Sun altitude
Rises 05:18:01 0° 13° (NNE) 3,467 7.5 -12.3°
Reaches altitude 10° 05:20:25 10° 12° (NNE) 2,522 6.8 -11.9°
Maximum altitude 05:26:01 77° 288° (WNW) 890 4.2 -10.9°
Drops below altitude 10° 05:31:32 10° 203° (SSW) 2,489 6.5 -10.0°
Sets 05:33:53 0° 202° (SSW) 3,418 7.2 -9.6°
